FLOCK 2B-5

Last updated on Sept. 25, 2016, 5:45 p.m. UTC

1 40954U 98067HF  16269.42466140  .06846346  12214-4  59436-3 0  9994
2 40954  51.6134 224.8835 0009759 189.2144 171.2907 16.38327062 55932

Satellite is not in orbit.